Location: LewisvilleTX
(33.0462°N, 96.9942°W)
Time: 02:34:17
(UTC+00:00)

N. Korean satellite - Visible Passes

Search period start: 27 November 2022 00:00
Search period end: 07 December 2022 00:00
Orbit: 422 x 454 km, 97.3° (Epoch: 26 November)

Date Brightness Start Highest point End Pass type
(mag) Time Alt. Az. Time Alt. Az. Time Alt. Az.
27 Nov 8.4 11:13:38 10° NE 11:16:41 30° E 11:19:43 10° SSE visible
28 Nov 7.0 12:07:20 10° N 12:10:29 35° WNW 12:13:36 10° SW visible
29 Nov 10.2 00:07:12 10° WSW 00:08:02 11° W 00:08:52 10° WNW visible
29 Nov 7.2 11:28:33 10° NNE 11:31:54 52° E 11:35:11 10° S visible
30 Nov 9.6 10:51:11 10° ENE 10:53:04 14° E 10:54:56 10° SE visible
30 Nov 7.6 12:22:50 10° NNW 12:25:30 22° WNW 12:28:09 10° SW visible
01 Dec 6.3 11:43:31 10° N 11:46:56 87° W 11:50:17 10° SSW visible
02 Dec 8.9 11:05:22 10° NE 11:08:06 22° E 11:10:48 10° SSE visible
02 Dec 8.2 12:38:34 10° NW 12:40:21 14° WNW 12:42:08 10° WSW visible
03 Dec 6.5 11:58:29 10° N 12:01:47 48° WNW 12:05:01 10° SSW visible
03 Dec 9.7 23:57:11 10° SW 23:59:08 15° W 00:01:06 10° WNW visible
04 Dec 7.9 11:19:47 10° NNE 11:22:57 37° E 11:26:04 10° SSE visible
05 Dec 10.0 10:43:35 10° E 10:43:54 10° E 10:44:12 10° E visible
05 Dec 7.2 12:13:29 10° NNW 12:16:26 29° WNW 12:19:22 10° SW visible
06 Dec 6.7 11:34:16 10° NNE 11:37:38 65° E 11:40:56 10° S visible
